MB7IWY-13 Weather Reports


time (UTC)temp
F
wind
direction
speed
knots
gust
knots
rain 1hr
in
rain 24hr
in
rain mn
in
humidity
%
barometer
mb
20260902153603 62 157 7.8 7.8 0.00 0.21 0.21 87 1035.9
20260902152703 62 157 7.8 7.8 0.00 0.21 0.21 92 1034.9
20260902151824 62 157 7.8 7.8 0.00 0.21 0.21 92 1034.9
20260902150903 62 157 7.8 7.8 0.00 0.21 0.21 92 1034.9
20260902150003 62 157 7.8 7.8 0.00 0.21 0.21 90 1034.9
20260902145403 62 157 7.8 7.8 0.00 0.21 0.21 90 1034.9
20260902144503 62 157 7.8 7.8 0.00 0.21 0.21 90 1034.9
20260902143603 62 157 7.8 7.8 0.00 0.21 0.21 90 1034.9
20260902142705 62 157 7.8 7.8 0.02 0.21 0.21 87 1035.9
20260902141803 62 157 7.8 7.8 0.02 0.21 0.21 87 1035.9
20260902140903 62 183 9.6 17.4 0.02 0.21 0.21 87 1035.9
20260902140003 63 247 17.4 17.4 0.02 0.21 0.21 82 1035.9
20260902135403 63 247 17.4 17.4 0.02 0.21 0.21 82 1035.9
20260902134524 63 247 17.4 17.4 0.02 0.21 0.21 82 1035.9
20260902133603 63 247 17.4 17.4 0.02 0.21 0.21 82 1035.9
20260902132724 63 247 17.4 17.4 0.00 0.19 0.19 82 1036.9
20260902131803 63 247 17.4 17.4 0.00 0.19 0.19 82 1036.9
20260902130903 63 247 17.4 17.4 0.00 0.19 0.19 82 1036.9
20260902130003 62 247 17.4 17.4 0.01 0.19 0.19 82 1036.9
20260902125403 62 247 17.4 17.4 0.01 0.19 0.19 82 1036.9
20260902124503 62 247 17.4 17.4 0.01 0.19 0.19 82 1036.9
20260902123624 62 247 17.4 17.4 0.01 0.19 0.19 82 1036.9
20260902122703 62 247 17.4 17.4 0.09 0.19 0.19 81 1036.9
20260902121824 62 247 17.4 17.4 0.09 0.19 0.19 81 1036.9
20260902120903 62 247 17.4 17.4 0.09 0.19 0.19 81 1036.9
20260902120003 63 247 17.4 17.4 0.15 0.18 0.18 77 1037.9
20260902115403 63 247 17.4 17.4 0.15 0.18 0.18 77 1037.9
20260902114503 63 247 17.4 17.4 0.15 0.18 0.18 77 1037.9
20260902113603 63 247 17.4 17.4 0.15 0.18 0.18 77 1037.9
20260902112703 63 247 17.4 17.4 0.07 0.09 0.09 76 1037.9
20260902111803 63 247 17.4 17.4 0.07 0.09 0.09 76 1037.9
20260902110903 63 247 17.4 17.4 0.07 0.09 0.09 76 1037.9
20260902110005 63 247 17.4 17.4 0.01 0.02 0.02 79 1037.9
20260902105403 63 247 17.4 17.4 0.01 0.02 0.02 79 1037.9
20260902104503 63 247 17.4 17.4 0.01 0.02 0.02 79 1037.9
20260902103603 63 247 17.4 17.4 0.01 0.02 0.02 79 1037.9
20260902102703 62 247 17.4 17.4 0.01 0.02 0.02 81 1037.9
20260902101803 62 247 17.4 17.4 0.01 0.02 0.02 81 1037.9
20260902100903 62 247 17.4 17.4 0.01 0.02 0.02 81 1037.9
20260902100003 60 247 17.4 17.4 0.00 0.01 0.01 85 1037.9
20260902095424 60 247 17.4 17.4 0.00 0.01 0.01 85 1037.9
20260902094503 60 247 17.4 17.4 0.00 0.01 0.01 85 1037.9
20260902093603 60 247 17.4 17.4 0.00 0.01 0.01 85 1037.9
20260902092703 60 247 17.4 17.4 0.01 0.01 0.01 84 1037.9
20260902091803 60 247 17.4 17.4 0.01 0.01 0.01 84 1037.9
20260902090903 60 247 17.4 17.4 0.01 0.01 0.01 84 1037.9
20260902090003 60 247 17.4 17.4 0.01 0.01 0.01 85 1037.9
20260902085424 60 247 17.4 17.4 0.01 0.01 0.01 85 1037.9
20260902084503 60 247 17.4 17.4 0.01 0.01 0.01 85 1037.9
20260902083603 60 247 17.4 17.4 0.01 0.01 0.01 85 1037.9
20260902082724 59 247 17.4 17.4 0.00 0.00 0.00 86 1038.9
20260902081803 59 247 17.4 17.4 0.00 0.00 0.00 86 1038.9
20260902080903 59 247 17.4 17.4 0.00 0.00 0.00 86 1038.9
20260902080003 58 247 17.4 17.4 0.00 0.00 0.00 87 1038.9
20260902075424 58 247 17.4 17.4 0.00 0.00 0.00 87 1038.9
20260902074503 58 247 17.4 17.4 0.00 0.00 0.00 87 1038.9
20260902073603 58 247 17.4 17.4 0.00 0.00 0.00 87 1038.9
20260902072703 58 247 17.4 17.4 0.00 0.00 0.00 88 1037.9
20260902071803 58 247 17.4 17.4 0.00 0.00 0.00 88 1037.9
20260902070924 58 247 17.4 17.4 0.00 0.00 0.00 88 1037.9
20260902070004 58 247 17.4 17.4 0.00 0.00 0.00 88 1037.9
20260902065403 58 247 17.4 17.4 0.00 0.00 0.00 88 1037.9
20260902064503 58 247 17.4 17.4 0.00 0.00 0.00 88 1037.9
20260902063603 58 247 17.4 17.4 0.00 0.00 0.00 88 1037.9
20260902062703 57 247 17.4 17.4 0.00 0.00 0.00 89 1037.9
20260902061803 57 247 17.4 17.4 0.00 0.00 0.00 89 1037.9
20260902060903 57 247 17.4 17.4 0.00 0.00 0.00 89 1037.9
20260902060003 57 247 17.4 17.4 0.00 0.00 0.00 89 1037.9
20260902055403 57 247 17.4 17.4 0.00 0.00 0.00 89 1037.9
20260902054503 57 247 17.4 17.4 0.00 0.00 0.00 89 1037.9
20260902053603 57 247 17.4 17.4 0.00 0.00 0.00 89 1037.9
20260902052724 57 247 17.4 17.4 0.00 0.00 0.00 88 1037.9
20260902051803 57 247 17.4 17.4 0.00 0.00 0.00 88 1037.9
20260902050903 57 247 17.4 17.4 0.00 0.00 0.00 88 1037.9
20260902050005 57 247 17.4 17.4 0.00 0.00 0.00 88 1037.9
20260902045424 57 247 17.4 17.4 0.00 0.00 0.00 88 1037.9
20260902044503 57 247 17.4 17.4 0.00 0.00 0.00 88 1037.9
20260902043624 57 247 17.4 17.4 0.00 0.00 0.00 88 1037.9
20260902042703 57 247 17.4 17.4 0.00 0.00 0.00 88 1037.9
20260902041803 57 247 17.4 17.4 0.00 0.00 0.00 88 1037.9
20260902040903 57 247 17.4 17.4 0.00 0.00 0.00 88 1037.9
20260902040024 57 247 17.4 17.4 0.00 0.00 0.00 88 1037.9
20260902035403 57 247 17.4 17.4 0.00 0.00 0.00 88 1037.9
20260902034503 57 247 17.4 17.4 0.00 0.00 0.00 88 1037.9
20260902033603 57 247 17.4 17.4 0.00 0.00 0.00 88 1037.9
20260902032703 58 247 17.4 17.4 0.00 0.00 0.00 87 1037.9
20260902031803 58 247 17.4 17.4 0.00 0.00 0.00 87 1037.9
20260902030924 58 247 17.4 17.4 0.00 0.00 0.00 87 1037.9
20260902030003 58 247 17.4 17.4 0.00 0.00 0.00 86 1037.9
20260902025403 58 247 17.4 17.4 0.00 0.00 0.00 86 1037.9
20260902024503 58 247 17.4 17.4 0.00 0.00 0.00 86 1037.9
20260902023603 58 247 17.4 17.4 0.00 0.00 0.00 86 1037.9
20260902022703 58 247 17.4 17.4 0.00 0.00 0.00 85 1037.9
20260902021803 58 247 17.4 17.4 0.00 0.00 0.00 85 1037.9
20260902020924 58 247 17.4 17.4 0.00 0.00 0.00 85 1037.9
20260902020003 59 247 17.4 17.4 0.00 0.00 0.00 83 1038.9
20260902015424 59 247 17.4 17.4 0.00 0.00 0.00 83 1038.9
20260902014503 59 247 17.4 17.4 0.00 0.00 0.00 83 1038.9
20260902013624 59 247 17.4 17.4 0.00 0.00 0.00 83 1038.9
20260902012703 59 247 17.4 17.4 0.00 0.00 0.00 82 1037.9
20260902011803 59 247 17.4 17.4 0.00 0.00 0.00 82 1037.9
20260902010903 59 247 17.4 17.4 0.00 0.00 0.00 82 1037.9
20260902010003 59 247 17.4 17.4 0.00 0.00 0.00 81 1037.9
20260902005424 59 247 17.4 17.4 0.00 0.00 0.00 81 1037.9
20260902004503 59 247 17.4 17.4 0.00 0.00 0.00 81 1037.9
20260902003603 59 247 17.4 17.4 0.00 0.00 0.00 81 1037.9
20260902002703 60 247 17.4 17.4 0.00 0.00 0.00 80 1038.9
20260902001803 60 247 17.4 17.4 0.00 0.00 0.00 80 1038.9
20260902000903 60 247 17.4 17.4 0.00 0.00 0.00 80 1038.9
20260902000024 60 247 17.4 17.4 0.00 0.00 0.00 79 1038.9
20260901235403 60 247 17.4 17.4 0.00 0.00 0.00 79 1038.9
20260901234503 60 247 17.4 17.4 0.00 0.00 0.00 79 1038.9
20260901233603 60 247 17.4 17.4 0.00 0.00 0.00 79 1038.9
20260901232703 60 247 17.4 17.4 0.00 0.00 0.00 78 1038.9
20260901231803 60 247 17.4 17.4 0.00 0.00 0.00 78 1038.9
20260901230903 60 247 17.4 17.4 0.00 0.00 0.00 78 1038.9
20260901230004 60 247 17.4 17.4 0.00 0.00 0.00 78 1038.9
20260901225424 60 247 17.4 17.4 0.00 0.00 0.00 78 1038.9
20260901224503 60 247 17.4 17.4 0.00 0.00 0.00 78 1038.9
20260901223603 60 247 17.4 17.4 0.00 0.00 0.00 78 1038.9
20260901222703 61 247 17.4 17.4 0.00 0.00 0.00 77 1038.9
20260901221803 61 247 17.4 17.4 0.00 0.00 0.00 77 1038.9
20260901220924 61 247 17.4 17.4 0.00 0.00 0.00 77 1038.9
20260901220003 61 247 17.4 17.4 0.00 0.00 0.00 77 1038.9
20260901215403 61 247 17.4 17.4 0.00 0.00 0.00 77 1038.9
20260901214503 61 247 17.4 17.4 0.00 0.00 0.00 77 1038.9
20260901213624 61 247 17.4 17.4 0.00 0.00 0.00 77 1038.9
20260901212703 62 247 17.4 17.4 0.00 0.00 0.00 76 1038.9
20260901211803 62 247 17.4 17.4 0.00 0.00 0.00 76 1038.9
20260901210903 62 247 17.4 17.4 0.00 0.00 0.00 76 1038.9
20260901210003 62 247 17.4 17.4 0.00 0.00 0.00 75 1038.9
20260901205403 62 247 17.4 17.4 0.00 0.00 0.00 75 1038.9
20260901204503 62 247 17.4 17.4 0.00 0.00 0.00 75 1038.9
20260901203603 62 247 17.4 17.4 0.00 0.00 0.00 75 1038.9
20260901202703 63 247 17.4 17.4 0.00 0.00 0.00 74 1038.9
20260901201824 63 247 17.4 17.4 0.00 0.00 0.00 74 1038.9
20260901200903 63 247 17.4 17.4 0.00 0.00 0.00 74 1038.9
20260901200024 63 247 17.4 17.4 0.00 0.00 0.00 73 1038.9
20260901195424 63 247 17.4 17.4 0.00 0.00 0.00 73 1038.9
20260901194503 63 247 17.4 17.4 0.00 0.00 0.00 73 1038.9
20260901193624 63 247 17.4 17.4 0.00 0.00 0.00 73 1038.9
20260901192703 64 247 17.4 17.4 0.00 0.00 0.00 73 1038.9
20260901191803 64 247 17.4 17.4 0.00 0.00 0.00 73 1038.9
20260901190903 64 247 17.4 17.4 0.00 0.00 0.00 73 1038.9
20260901190003 64 247 17.4 17.4 0.00 0.00 0.00 73 1037.9
20260901185403 64 247 17.4 17.4 0.00 0.00 0.00 73 1037.9
20260901184503 64 247 17.4 17.4 0.00 0.00 0.00 73 1037.9
20260901183603 64 247 17.4 17.4 0.00 0.00 0.00 73 1037.9
20260901182703 64 247 17.4 17.4 0.00 0.00 0.00 73 1037.9
20260901181803 64 247 17.4 17.4 0.00 0.00 0.00 73 1037.9
20260901180924 64 247 17.4 17.4 0.00 0.00 0.00 73 1037.9
20260901180003 64 247 17.4 17.4 0.00 0.00 0.00 72 1037.9
20260901175403 64 247 17.4 17.4 0.00 0.00 0.00 72 1037.9
20260901174524 64 247 17.4 17.4 0.00 0.00 0.00 72 1037.9
20260901173603 64 247 17.4 17.4 0.00 0.00 0.00 72 1037.9
20260901172703 65 247 17.4 17.4 0.00 0.00 0.00 72 1038.9
20260901171803 65 247 17.4 17.4 0.00 0.00 0.00 72 1038.9
20260901170903 65 247 17.4 17.4 0.00 0.00 0.00 72 1038.9
20260901170003 65 247 17.4 17.4 0.00 0.00 0.00 71 1038.9
20260901165403 65 247 17.4 17.4 0.00 0.00 0.00 71 1038.9
20260901164503 65 247 17.4 17.4 0.00 0.00 0.00 71 1038.9
20260901163603 65 247 17.4 17.4 0.00 0.00 0.00 71 1038.9
20260901162724 65 247 17.4 17.4 0.00 0.00 0.00 71 1038.9
20260901161803 65 247 17.4 17.4 0.00 0.00 0.00 71 1038.9
20260901160903 65 247 17.4 17.4 0.00 0.00 0.00 71 1038.9
20260901160024 65 247 17.4 17.4 0.00 0.00 0.00 70 1038.9
20260901155403 65 247 17.4 17.4 0.00 0.00 0.00 70 1038.9
20260901154503 65 247 17.4 17.4 0.00 0.00 0.00 70 1038.9